TimePDT,TemperatureF,Dew PointF,Humidity,Sea Level PressureIn,VisibilityMPH,Wind Direction,Wind SpeedMPH,Gust SpeedMPH,PrecipitationIn,Events,Conditions,WindDirDegrees,DateUTC
12:53 AM,57.0,46.9,69,29.97,10.0,SSE,6.9,-,N/A,,Overcast,160,2013-05-17 07:53:00
1:53 AM,55.9,48.0,75,29.97,10.0,SSE,8.1,-,0.00,Rain,Light Rain,160,2013-05-17 08:53:00
2:53 AM,55.0,48.9,80,29.97,10.0,SSE,6.9,-,0.00,Rain,Light Rain,160,2013-05-17 09:53:00
3:53 AM,55.0,50.0,83,29.97,10.0,South,8.1,-,0.00,Rain,Light Rain,170,2013-05-17 10:53:00
4:53 AM,55.4,48.2,77,29.97,10.0,South,5.8,-,N/A,Rain,Light Rain,180,2013-05-17 11:53:00
5:53 AM,55.0,48.9,80,29.98,10.0,South,3.5,-,0.00,,Overcast,180,2013-05-17 12:53:00
6:53 AM,55.0,50.0,83,29.99,10.0,South,8.1,-,0.01,Rain,Light Rain,180,2013-05-17 13:53:00
7:53 AM,55.9,51.1,84,29.99,10.0,SE,6.9,-,0.00,Rain,Light Rain,140,2013-05-17 14:53:00
8:53 AM,57.0,50.0,77,29.99,10.0,South,5.8,-,0.00,Rain,Light Rain,170,2013-05-17 15:53:00
9:53 AM,57.0,48.0,72,30.00,10.0,South,10.4,-,0.01,Rain,Light Rain,180,2013-05-17 16:53:00
10:53 AM,59.0,46.9,64,30.01,10.0,SSE,11.5,-,0.00,,Overcast,160,2013-05-17 17:53:00
11:53 AM,60.1,45.0,57,30.01,10.0,Variable,6.9,-,N/A,,Overcast,0,2013-05-17 18:53:00
12:53 PM,62.1,44.1,52,30.01,10.0,SSW,9.2,-,N/A,,Overcast,210,2013-05-17 19:53:00
1:53 PM,62.1,45.0,53,30.00,10.0,South,8.1,16.1,N/A,,Overcast,170,2013-05-17 20:53:00
2:53 PM,62.1,43.0,50,30.01,10.0,SW,9.2,-,N/A,,Overcast,230,2013-05-17 21:53:00
3:53 PM,63.0,44.1,50,29.99,10.0,SSE,9.2,-,N/A,,Mostly Cloudy,150,2013-05-17 22:53:00
4:53 PM,64.9,45.0,48,30.00,10.0,South,9.2,-,N/A,,Overcast,170,2013-05-17 23:53:00
5:53 PM,64.0,46.9,54,30.01,10.0,South,12.7,19.6,0.00,,Mostly Cloudy,170,2013-05-18 00:53:00
6:53 PM,61.0,46.9,60,30.01,10.0,SSE,10.4,-,N/A,,Mostly Cloudy,160,2013-05-18 01:53:00
7:53 PM,60.1,48.0,64,30.02,10.0,South,11.5,-,N/A,,Mostly Cloudy,170,2013-05-18 02:53:00
8:53 PM,59.0,48.9,69,30.03,10.0,SSE,10.4,-,N/A,,Overcast,150,2013-05-18 03:53:00
9:53 PM,57.9,46.9,67,30.05,10.0,SSE,9.2,-,N/A,,Overcast,160,2013-05-18 04:53:00
10:53 PM,55.9,46.0,69,30.06,10.0,SSW,4.6,-,N/A,,Partly Cloudy,200,2013-05-18 05:53:00
11:53 PM,55.9,46.0,69,30.07,10.0,South,5.8,-,N/A,,Scattered Clouds,190,2013-05-18 06:53:00